Weather History for KIGX - March, 2013

Change the Weather History Date:

Saturday, March 2, 2013

  Actual Average Record
Temperature  
Mean Temperature 36 °F -  
Max Temperature 46 °F 58 °F 80 °F (1976)
Min Temperature 27 °F 33 °F 10 °F (1980)
Degree Days  
Heating Degree Days 28    
Moisture  
Dew Point 22 °F    
Average Humidity 58    
Maximum Humidity 85    
Minimum Humidity 37    
Precipitation  
Precipitation 0.00 in - - ()
Sea Level Pressure  
Sea Level Pressure 29.88 in    
Wind  
Wind Speed 3 mph (WNW)    
Max Wind Speed 14 mph    
Max Gust Speed 20 mph    
Visibility 10 miles    
Events      
Averages and records for this station are not official NWS values.
T = Trace of Precipitation, MM = Missing Value Source: NWS Daily Summary

Daily Weather History Graph

Daily Weather History Graph

Search for Another Location

Airport or City:

Trip Planner

Search our weather history database for the weather conditions in past years. The results will help you decide how hot, cold, wet, or windy it might be!

Date:

Astronomy

Mar. 02, 2013 Rise Set
Actual Time 6:44 AM EST 6:12 PM EST
Civil Twilight 6:19 AM EST 6:38 PM EST
Nautical Twilight 5:49 AM EST 7:07 PM EST
Astronomical Twilight 5:19 AM EST 7:37 PM EST
Moon 11:37 PM EST (3/2) 9:22 AM EST (3/2)
Length of Visible Light 12h 19m
Length of Day
11h 27m
Waning Gibbous, 74% of the Moon is Illuminated
Mar 2
Waning Gibbous
Mar 4
Last Quarter
Mar 11
New
Mar 19
First Quarter
Mar 27
Full

Hourly Weather History & Observations

Time (EST) Temp. Windchill Dew Point Humidity Pressure Visibility Wind Dir Wind Speed Gust Speed Precip Events Conditions
12:56 AM 30.9 °F - 24.1 °F 76% 29.91 in 10.0 mi Calm Calm - N/A   Clear
1:56 AM 30.0 °F - 24.1 °F 79% 29.92 in 10.0 mi Calm Calm - N/A   Clear
2:56 AM 30.0 °F - 23.0 °F 75% 29.91 in 10.0 mi Calm Calm - N/A   Clear
3:56 AM 28.9 °F - 23.0 °F 78% 29.89 in 10.0 mi Calm Calm - N/A   Clear
4:56 AM 28.9 °F - 24.1 °F 82% 29.89 in 10.0 mi Calm Calm - N/A   Scattered Clouds
5:56 AM 28.0 °F - 23.0 °F 81% 29.89 in 10.0 mi Calm Calm - N/A   Clear
6:56 AM 27.0 °F - 23.0 °F 85% 29.91 in 10.0 mi Calm Calm - N/A   Mostly Cloudy
7:56 AM 32.0 °F 28.7 °F 26.1 °F 79% 29.91 in 10.0 mi West 3.5 mph - N/A   Overcast
8:56 AM 36.0 °F 33.3 °F 26.1 °F 67% 29.91 in 10.0 mi WNW 3.5 mph - N/A   Overcast
9:56 AM 42.1 °F 38.4 °F 21.9 °F 45% 29.89 in 10.0 mi WNW 5.8 mph - N/A   Clear
10:56 AM 42.1 °F 38.4 °F 21.0 °F 43% 29.88 in 10.0 mi WNW 5.8 mph - N/A   Scattered Clouds
11:56 AM 45.0 °F 39.3 °F 21.9 °F 40% 29.87 in 10.0 mi WNW 11.5 mph 17.3 mph N/A   Mostly Cloudy
12:56 PM 46.9 °F - 21.9 °F 37% 29.84 in 10.0 mi West 13.8 mph 18.4 mph N/A   Mostly Cloudy
1:56 PM 46.0 °F 39.9 °F 21.9 °F 39% 29.83 in 10.0 mi WNW 13.8 mph 19.6 mph N/A   Overcast
2:56 PM 46.0 °F 41.9 °F 21.9 °F 39% 29.82 in 10.0 mi West 8.1 mph - N/A   Overcast
3:56 PM 45.0 °F 42.6 °F 23.0 °F 42% 29.82 in 10.0 mi Variable 4.6 mph - N/A   Overcast
4:56 PM 44.1 °F 41.5 °F 23.0 °F 43% 29.83 in 10.0 mi NW 4.6 mph - N/A   Overcast
5:56 PM 43.0 °F 40.3 °F 23.0 °F 45% 29.85 in 10.0 mi Variable 4.6 mph - N/A   Overcast
6:56 PM 41.0 °F 35.2 °F 21.9 °F 47% 29.87 in 10.0 mi NNW 9.2 mph - N/A   Overcast
7:56 PM 37.9 °F 31.5 °F 19.9 °F 48% 29.89 in 10.0 mi NNW 9.2 mph - N/A   Overcast
8:56 PM 35.1 °F 29.3 °F 18.0 °F 50% 29.91 in 10.0 mi NW 6.9 mph 17.3 mph N/A   Clear
9:56 PM 33.1 °F 30.0 °F 17.1 °F 52% 29.93 in 10.0 mi NW 3.5 mph - N/A   Clear
10:56 PM 30.0 °F 25.2 °F 17.1 °F 59% 29.93 in 10.0 mi WNW 4.6 mph - N/A   Clear
11:56 PM 28.0 °F - 17.1 °F 63% 29.93 in 10.0 mi Calm Calm - N/A   Clear